Regional Weather Roundup
Issued by NWS

Home | Current Version | Previous Version | Text Only | Print | Product List | Glossary On
Versions: 1 2 3 4 5 6 7 8 9 10 11 12 13 14 15 16 17 18 19 20 21 22 23 24 25 26 27 28 29 30 31 32 33 34 35 36 37 38 39 40 41 42 43 44 45 46 47 48 49 50
000
ASUS46 KPQR 221610
RWROR

OREGON REGIONAL WEATHER ROUNDUP
NATIONAL WEATHER SERVICE PORTLAND OR
900 AM PDT FRI AUG 22 2014

NOTE: "FAIR" INDICATES FEW OR NO CLOUDS BELOW 12,000 FEET WITH
NO SIGNIFICANT WEATHER AND/OR OBSTRUCTIONS TO VISIBILITY.

ORZ001>013-221700-
NORTHWEST OREGON


CITY           SKY/WX    TMP DP  RH WIND       PRES   REMARKS
ASTORIA        CLOUDY    60  56  86 W5        30.06R
NEWPORT        CLOUDY    59  59 100 CALM      30.08S FOG
PORTLAND       MOSUNNY   64  54  69 N7        30.04R
VANCOUVER WA   MOSUNNY   64  54  69 N5        30.04R
SCAPPOOSE      PTSUNNY   64  54  69 N9        30.03S
HILLSBORO      PTSUNNY   63  53  70 CALM      30.04R
AURORA         CLOUDY    62  50  64 W6        30.05R
MCMINNVILLE    CLOUDY    64  52  64 CALM      30.05S
SALEM          CLOUDY    64  51  62 CALM      30.03S
CORVALLIS      CLOUDY    63  55  77 N5        30.05S
EUGENE         MOSUNNY   66  49  54 CALM      30.04S
$$

ORZ021-028-221700-
SOUTHWEST OREGON


CITY           SKY/WX    TMP DP  RH WIND       PRES   REMARKS
NORTH BEND     CLOUDY    63  63 100 CALM      30.05S
BROOKINGS      SUNNY     62  55  77 VRB3      30.01S
ROSEBURG       CLOUDY    65  56  72 CALM      30.03S
SEXTON SUMMIT  SUNNY     53  48  83 VRB7      30.06R
MEDFORD        SUNNY     65  48  54 CALM      30.01S
$$

ORZ009-041-221700-
COLUMBIA GORGE


CITY           SKY/WX    TMP DP  RH WIND       PRES   REMARKS
TROUTDALE      CLOUDY    63  52  67 CALM      30.03S
THE DALLES     SUNNY     67  50  54 NW15      29.97R
$$

ORZ029>031-042>050-061>064-221700-
EASTERN OREGON


CITY           SKY/WX    TMP DP  RH WIND       PRES   REMARKS
REDMOND        SUNNY     60  39  45 CALM      30.03S
BEND           SUNNY     57  39  51 CALM      30.05F
KLAMATH FALLS  SUNNY     60  42  51 CALM      30.04S
LAKEVIEW       SUNNY     57  34  41 N3        30.07S
HERMISTON      SUNNY     66  47  50 CALM      29.96S
PENDLETON      SUNNY     66  46  48 NW8       29.97S
JOHN DAY       MOSUNNY   56  36  46 E3        30.03S
MEACHAM        SUNNY     58  45  62 VRB5      30.02R
LA GRANDE      MOSUNNY   63  37  39 NW14G21   29.98S
BAKER CITY     SUNNY     59  41  51 W6        29.99S
BURNS          SUNNY     62  42  47 NW13      30.02R
ROME             N/A     67  24  19 N3        29.98S
ONTARIO        SUNNY     69  40  34 NE3       29.92S
$$



USA.gov is the U.S. government's official web portal to all federal, state and local government web resources and services.